Daleville, AL

5:27 AM CDT on August 24, 2016 (GMT -0500)
Cairns Army Air Field

Weather History for KOZR - May, 2014

Change the Weather History Date:

Monday, May 26, 2014

  Actual Average Record
Temperature  
Mean Temperature 78 °F -  
Max Temperature 91 °F 83 °F 97 °F (2012)
Min Temperature 66 °F 63 °F 55 °F (2005)
Cooling Degree Days 14    
Growing Degree Days 28 (Base 50)    
Moisture  
Dew Point 66 °F    
Average Humidity 78    
Maximum Humidity 95    
Minimum Humidity 46    
Precipitation  
Precipitation 0.09 in - - ()
Sea Level Pressure  
Sea Level Pressure 30.15 in    
Wind  
Wind Speed 4 mph (ESE)    
Max Wind Speed 17 mph    
Max Gust Speed 33 mph    
Visibility 10 miles    
Events Rain , Thunderstorm    
Averages and records for this station are not official NWS values.
T = Trace of Precipitation, MM = Missing Value Source: NWS Daily Summary

Daily Weather History Graph

Daily Weather History Graph

Search for Another Location

Airport or City:

Trip Planner

Search our weather history database for the weather conditions in past years. The results will help you decide how hot, cold, wet, or windy it might be!

Date:

Astronomy

May. 26, 2014 Rise Set
Actual Time 5:41 AM CDT 7:38 PM CDT
Civil Twilight 5:13 AM CDT 8:06 PM CDT
Nautical Twilight 4:41 AM CDT 8:39 PM CDT
Astronomical Twilight 4:05 AM CDT 9:14 PM CDT
Moon 4:13 AM CDT (5/26) 5:48 PM CDT (5/26)
Length of Visible Light 14h 52m
Length of Day
13h 57m
Waning Crescent, 5% of the Moon is Illuminated
May 26
Waning Crescent
May 28
New
Jun 5
First Quarter
Jun 12
Full
Jun 19
Last Quarter

Hourly Weather History & Observations

Time (CDT) Temp. Heat Index Dew Point Humidity Pressure Visibility Wind Dir Wind Speed Gust Speed Precip Events Conditions
12:58 AM 70.7 °F - 65.3 °F 83% 30.13 in 10.0 mi SE 3.5 mph - N/A   Clear
1:58 AM 70.2 °F - 63.5 °F 79% 30.12 in 10.0 mi SSE 3.5 mph - N/A   Clear
2:58 AM 70.2 °F - 63.7 °F 80% 30.12 in 10.0 mi NE 1.2 mph - N/A   Clear
3:58 AM 69.1 °F - 64.0 °F 84% 30.12 in 10.0 mi East 2.3 mph - N/A   Clear
4:58 AM 66.0 °F - 64.2 °F 94% 30.14 in 10.0 mi NE 5.8 mph - N/A   Clear
5:58 AM 66.6 °F - 64.0 °F 92% 30.16 in 10.0 mi East 2.3 mph - N/A   Clear
6:58 AM 68.7 °F - 65.1 °F 88% 30.18 in 10.0 mi ENE 6.9 mph - N/A   Clear
7:58 AM 73.9 °F - 66.2 °F 77% 30.19 in 10.0 mi SE 3.5 mph - N/A   Clear
8:58 AM 78.3 °F - 65.7 °F 65% 30.20 in 10.0 mi SE 6.9 mph - N/A   Clear
9:58 AM 82.2 °F 83.8 °F 64.6 °F 55% 30.20 in 10.0 mi SSE 5.8 mph - N/A   Clear
10:58 AM 85.5 °F 86.6 °F 63.9 °F 48% 30.19 in 10.0 mi SSE 5.8 mph - N/A   Clear
11:58 AM 87.8 °F 90.0 °F 66.0 °F 48% 30.18 in 10.0 mi Variable 4.6 mph - N/A   Partly Cloudy
12:58 PM 89.6 °F 93.4 °F 68.2 °F 49% 30.16 in 10.0 mi East 3.5 mph - N/A   Partly Cloudy
1:58 PM 89.8 °F 93.8 °F 68.2 °F 49% 30.13 in 10.0 mi South 6.9 mph - N/A   Scattered Clouds
2:58 PM 90.5 °F 94.2 °F 67.6 °F 47% 30.09 in 10.0 mi Variable 3.5 mph - N/A   Partly Cloudy
3:58 PM 91.4 °F 95.4 °F 68.0 °F 46% 30.11 in 10.0 mi SE 10.4 mph - N/A   Clear
4:05 PM 84.2 °F 87.3 °F 68.0 °F 58% 30.13 in 10.0 mi South 10.4 mph 32.2 mph N/A Thunderstorm Thunderstorm
4:17 PM 75.2 °F - 68.0 °F 78% 30.14 in 8.0 mi South 17.3 mph 33.4 mph N/A Rain , Thunderstorm Light Thunderstorms and Rain
4:48 PM 69.8 °F - 64.4 °F 83% 30.14 in 9.0 mi Variable 5.8 mph - N/A Rain Light Rain
4:58 PM 70.3 °F - 65.8 °F 86% 30.14 in 10.0 mi WSW 2.3 mph - 0.08 in   Light Drizzle
5:05 PM 71.6 °F - 66.2 °F 83% 30.13 in 10.0 mi WSW 3.5 mph - N/A   Overcast
5:11 PM 71.6 °F - 66.2 °F 83% 30.12 in 10.0 mi NW 2.3 mph - N/A   Light Drizzle
5:26 PM 71.6 °F - 68.0 °F 88% 30.11 in 10.0 mi North 5.8 mph - N/A   Overcast
5:58 PM 70.0 °F - 67.3 °F 91% 30.12 in 10.0 mi Calm Calm - 0.00 in   Mostly Cloudy
6:04 PM 71.6 °F - 66.2 °F 83% 30.12 in 10.0 mi South 3.5 mph - N/A Rain Light Rain
6:37 PM 71.6 °F - 66.2 °F 83% 30.13 in 10.0 mi Calm Calm - N/A   Partly Cloudy
6:58 PM 71.6 °F - 67.1 °F 86% 30.14 in 10.0 mi NNW 3.5 mph - 0.01 in   Mostly Cloudy
7:58 PM 70.9 °F - 66.7 °F 87% 30.13 in 10.0 mi NW 2.3 mph - N/A   Overcast
8:58 PM 70.2 °F - 68.5 °F 95% 30.15 in 10.0 mi East 5.8 mph - N/A   Overcast
9:58 PM 70.0 °F - 67.5 °F 92% 30.16 in 10.0 mi ESE 3.5 mph - N/A   Overcast
10:58 PM 69.3 °F - 67.6 °F 95% 30.16 in 10.0 mi Calm Calm - N/A   Overcast
11:28 PM 69.8 °F - 68.0 °F 94% 30.17 in 10.0 mi East 3.5 mph - N/A   Overcast
11:43 PM 69.8 °F - 68.0 °F 94% 30.16 in 10.0 mi East 3.5 mph - N/A   Mostly Cloudy
11:58 PM 69.8 °F - 67.5 °F 92% 30.16 in 10.0 mi East 3.5 mph - N/A   Mostly Cloudy